Overview Statistics Trail Chart Weather Telemetry Raw packets
 

This is the latest recevied weather packets stored in our database for station/object SP9MUF-14. If no packets are shown the sender has not sent any weather packets the latest 10 day(s).

<< 3 4 5 6 7 8 9 >>
Time Temp. Humidity Pressure Rain* Wind** Luminosity Snow
1788599135 17.78° C 77% 1016.5 hPa 0 mm - 243 W/m² -
1788598833 17.78° C 78% 1016.6 hPa 0 mm - 181 W/m² -
1788598229 16.67° C 81% 1016.6 hPa 0 mm - 220 W/m² -
1788597927 16.67° C 83% 1016.6 hPa 0 mm - 315 W/m² -
1788597322 16.67° C 84% 1016.6 hPa 0 mm - 142 W/m² -
1788597020 15.56° C 83% 1016.7 hPa 0 mm - 148 W/m² -
1788596718 15.56° C 83% 1016.8 hPa 0 mm - 135 W/m² -
1788596416 15.56° C 82% 1016.7 hPa 0 mm - 116 W/m² -
1788596114 15.56° C 81% 1016.6 hPa 0 mm - 84 W/m² -
1788595812 15.56° C 80% 1016.8 hPa 0 mm - 67 W/m² -
1788595510 15.56° C 80% 1016.7 hPa 0 mm - 61 W/m² -
1788595208 15.56° C 80% 1016.7 hPa 0 mm - 37 W/m² -
1788594907 15.56° C 80% 1016.5 hPa 0 mm - - -
1788594905 15.56° C 80% 1016.5 hPa 0 mm - 61 W/m² -
1788594605 15.56° C 80% 1016.4 hPa 0 mm - 33 W/m² -
1788594301 15.56° C 80% 1016.5 hPa 0 mm - 41 W/m² -
1788593999 15.56° C 79% 1016.4 hPa 0 mm - 64 W/m² -
1788593395 15.56° C 79% 1016.2 hPa 0 mm - 60 W/m² -
1788593093 15.56° C 79% 1016.4 hPa 0 mm - 61 W/m² -
1788592489 15.56° C 79% 1016.4 hPa 0 mm - 66 W/m² -
1788591885 15.56° C 82% 1016.1 hPa 0 mm - 40 W/m² -
1788590978 15.56° C 81% 1016.2 hPa 0 mm - 78 W/m² -
1788590072 15.56° C 82% 1015.9 hPa 0.25 mm - 64 W/m² -
1788589770 15.56° C 82% 1015.9 hPa 0.25 mm - 47 W/m² -
1788589468 15.56° C 83% 1015.6 hPa 0.25 mm - 36 W/m² -

* Rain latest hour (hover to see other rain measurements)
** Current wind speed in m/s (hover to see current wind gust speed)